IGO6461 VISR-VIDP

Flight info

Callsign IGO6461
Flight time 0h 54m
Altitude 39000
Route SGR W23 RILVU W21 PANLA W23 BIKUX W21 PKT J22 CHG J21 UPTEX UPTEX6D
Aircraft A20N/M-SDE2E3FGHIRWXY/LB1

Departure

Time 2026-04-30 05:50
Airport Sheikh ul Alam International Airport (VISR)

Arrival

Time 2026-04-30 06:45
Airport Indira Gandhi International Airport (VIDP)
Time Latitude Longitude Altitude Speed Heading
2026-04-30 05:36 34.00092 74.76232 5455 ft 0 kts 20°
2026-04-30 05:43 34.00085 74.76229 5455 ft 2 kts 20°
2026-04-30 05:43 34.00074 74.76224 5455 ft 2 kts 20°
2026-04-30 05:43 34.00063 74.76219 5455 ft 2 kts 20°
2026-04-30 05:43 34.00052 74.76215 5455 ft 2 kts
2026-04-30 05:44 34.00041 74.76217 5455 ft 2 kts 337°
2026-04-30 05:44 34.00031 74.76223 5455 ft 2 kts 316°
2026-04-30 05:44 34.00023 74.76233 5455 ft 2 kts 302°
2026-04-30 05:44 34.00018 74.76245 5455 ft 2 kts 287°
2026-04-30 05:45 34.00016 74.76252 5454 ft 0 kts 279°
2026-04-30 05:47 34.00016 74.76245 5455 ft 2 kts 269°
2026-04-30 05:47 34.00011 74.76207 5455 ft 7 kts 254°
2026-04-30 05:47 33.99966 74.76170 5457 ft 10 kts 200°
2026-04-30 05:47 33.99915 74.76181 5457 ft 2 kts 90°
2026-04-30 05:48 33.99923 74.76193 5457 ft 1 kts 28°
2026-04-30 05:48 33.99932 74.76187 5457 ft 3 kts 338°
2026-04-30 05:48 33.99933 74.76174 5457 ft 1 kts 257°
2026-04-30 05:48 33.99924 74.76163 5458 ft 3 kts 219°
2026-04-30 05:49 33.99862 74.76142 5459 ft 17 kts 192°
2026-04-30 05:49 33.99779 74.76137 5458 ft 0 kts 144°
2026-04-30 05:49 33.99779 74.76138 5458 ft 0 kts 133°
2026-04-30 05:49 33.99730 74.76202 5459 ft 37 kts 133°
2026-04-30 05:50 33.99381 74.76615 5462 ft 102 kts 136°
2026-04-30 05:50 33.98738 74.77355 5463 ft 151 kts 136°
2026-04-30 05:50 33.97899 74.78319 5785 ft 179 kts 136°
2026-04-30 05:50 33.96918 74.79421 6461 ft 201 kts 137°
2026-04-30 05:51 33.95761 74.80322 7276 ft 197 kts 165°
2026-04-30 05:51 33.94377 74.80308 8077 ft 209 kts 198°
2026-04-30 05:51 33.93007 74.79543 8578 ft 227 kts 206°
2026-04-30 05:51 33.91473 74.78802 9008 ft 247 kts 194°
2026-04-30 05:52 33.89682 74.78546 9409 ft 270 kts 179°
2026-04-30 05:52 33.87753 74.78723 9941 ft 289 kts 172°
2026-04-30 05:52 33.85726 74.79129 10565 ft 305 kts 169°
2026-04-30 05:52 33.83562 74.79645 10941 ft 329 kts 168°
2026-04-30 05:53 33.81258 74.80213 11511 ft 342 kts 168°
2026-04-30 05:53 33.78906 74.80786 12390 ft 347 kts 169°
2026-04-30 05:53 33.76517 74.81354 13311 ft 351 kts 169°
2026-04-30 05:53 33.74095 74.81918 14139 ft 356 kts 169°
2026-04-30 05:54 33.71672 74.82475 14885 ft 361 kts 170°
2026-04-30 05:54 33.69184 74.83042 15635 ft 366 kts 170°
2026-04-30 05:54 33.66718 74.83604 16348 ft 371 kts 170°
2026-04-30 05:54 33.64080 74.84225 17096 ft 376 kts 170°
2026-04-30 05:55 33.61496 74.84847 17821 ft 380 kts 170°
2026-04-30 05:55 33.58922 74.85469 18493 ft 385 kts 170°
2026-04-30 05:55 33.56282 74.86110 19118 ft 389 kts 170°
2026-04-30 05:55 33.53612 74.86758 19776 ft 392 kts 170°
2026-04-30 05:56 33.50914 74.87411 20395 ft 397 kts 170°
2026-04-30 05:56 33.48189 74.88069 21013 ft 400 kts 170°
2026-04-30 05:56 33.45463 74.88726 21629 ft 405 kts 170°
2026-04-30 05:56 33.42683 74.89396 22233 ft 409 kts 170°
2026-04-30 05:57 33.39875 74.90073 22865 ft 413 kts 170°
2026-04-30 05:57 33.37057 74.90893 23482 ft 418 kts 164°
2026-04-30 05:57 33.34352 74.92102 24002 ft 423 kts 156°
2026-04-30 05:57 33.31743 74.93782 24524 ft 427 kts 149°
2026-04-30 05:58 33.29233 74.95718 25041 ft 431 kts 147°
2026-04-30 05:58 33.26711 74.97701 25533 ft 435 kts 147°
2026-04-30 05:58 33.24172 74.99684 26033 ft 438 kts 148°
2026-04-30 05:58 33.21597 75.01668 26500 ft 441 kts 148°
2026-04-30 05:59 33.18995 75.03647 26967 ft 445 kts 148°
2026-04-30 05:59 33.16369 75.05628 27395 ft 448 kts 148°
2026-04-30 05:59 33.13714 75.07622 27819 ft 452 kts 148°
2026-04-30 05:59 33.11083 75.09607 28246 ft 455 kts 148°
2026-04-30 06:00 33.08399 75.11637 28659 ft 458 kts 148°
2026-04-30 06:00 33.05694 75.13684 29048 ft 461 kts 148°
2026-04-30 06:00 33.02971 75.15743 29449 ft 464 kts 148°
2026-04-30 06:00 33.00228 75.17816 29824 ft 467 kts 148°
2026-04-30 06:01 32.97468 75.19901 30138 ft 471 kts 148°
2026-04-30 06:01 32.94687 75.22001 30408 ft 476 kts 148°
2026-04-30 06:01 32.91869 75.24127 30663 ft 480 kts 149°
2026-04-30 06:01 32.89029 75.26269 30932 ft 484 kts 149°
2026-04-30 06:02 32.86176 75.28420 31295 ft 486 kts 149°
2026-04-30 06:02 32.83308 75.30581 31627 ft 489 kts 149°
2026-04-30 06:02 32.80424 75.32752 31981 ft 490 kts 149°
2026-04-30 06:02 32.77569 75.34900 32316 ft 493 kts 149°
2026-04-30 06:03 32.74663 75.37083 32650 ft 495 kts 149°
2026-04-30 06:03 32.71735 75.39282 32974 ft 497 kts 149°
2026-04-30 06:03 32.68811 75.41476 33292 ft 499 kts 149°
2026-04-30 06:03 32.65862 75.43686 33583 ft 501 kts 149°
2026-04-30 06:04 32.62903 75.45902 33863 ft 503 kts 150°
2026-04-30 06:04 32.59933 75.48117 34089 ft 504 kts 151°
2026-04-30 06:04 32.57033 75.50003 34306 ft 504 kts 158°
2026-04-30 06:05 32.50357 75.52921 34738 ft 503 kts 166°
2026-04-30 06:05 32.47010 75.54160 34975 ft 503 kts 167°
2026-04-30 06:05 32.43696 75.55395 35198 ft 505 kts 166°
2026-04-30 06:05 32.40340 75.56666 35405 ft 506 kts 166°
2026-04-30 06:06 32.36979 75.57958 35610 ft 507 kts 166°
2026-04-30 06:06 32.33622 75.59262 35830 ft 508 kts 166°
2026-04-30 06:06 32.30251 75.60578 36040 ft 509 kts 166°
2026-04-30 06:06 32.26926 75.61877 36241 ft 510 kts 166°
2026-04-30 06:07 32.23539 75.63339 36440 ft 514 kts 160°
2026-04-30 06:07 32.20347 75.65193 36632 ft 519 kts 153°
2026-04-30 06:07 32.17267 75.67468 36824 ft 522 kts 149°
2026-04-30 06:07 32.14224 75.69830 37017 ft 523 kts 149°
2026-04-30 06:08 32.11176 75.72198 37209 ft 524 kts 149°
2026-04-30 06:08 32.08107 75.74557 37395 ft 525 kts 150°
2026-04-30 06:08 32.05061 75.76872 37582 ft 526 kts 150°
2026-04-30 06:08 32.01966 75.79203 37760 ft 527 kts 150°
2026-04-30 06:09 31.98860 75.81530 37932 ft 528 kts 150°
2026-04-30 06:09 31.95747 75.83854 38111 ft 529 kts 151°
2026-04-30 06:09 31.92635 75.86175 38294 ft 530 kts 151°
2026-04-30 06:09 31.89506 75.88506 38468 ft 531 kts 151°
2026-04-30 06:10 31.86413 75.90797 38644 ft 530 kts 151°
2026-04-30 06:10 31.83289 75.93097 38755 ft 530 kts 151°
2026-04-30 06:10 31.80165 75.95394 38761 ft 528 kts 151°
2026-04-30 06:11 31.73912 75.99985 38760 ft 529 kts 151°
2026-04-30 06:11 31.68704 76.03808 38759 ft 529 kts 152°
2026-04-30 06:12 31.62495 76.08361 38755 ft 528 kts 152°
2026-04-30 06:12 31.56253 76.12931 38758 ft 528 kts 152°
2026-04-30 06:13 31.49991 76.17510 38755 ft 528 kts 152°
2026-04-30 06:13 31.43793 76.22036 38753 ft 528 kts 152°
2026-04-30 06:14 31.37531 76.26601 38755 ft 528 kts 152°
2026-04-30 06:14 31.31314 76.31127 38754 ft 528 kts 152°
2026-04-30 06:15 31.25074 76.35663 38749 ft 528 kts 152°
2026-04-30 06:15 31.18853 76.40178 38748 ft 528 kts 152°
2026-04-30 06:16 31.12610 76.44702 38748 ft 528 kts 152°
2026-04-30 06:16 31.06365 76.49221 38754 ft 528 kts 152°
2026-04-30 06:17 31.00129 76.53726 38745 ft 527 kts 152°
2026-04-30 06:17 30.93922 76.58204 38750 ft 527 kts 152°
2026-04-30 06:18 30.87664 76.62713 38761 ft 527 kts 152°
2026-04-30 06:18 30.81416 76.67205 38770 ft 527 kts 152°
2026-04-30 06:19 30.75212 76.71660 38772 ft 527 kts 152°
2026-04-30 06:19 30.68696 76.75412 38757 ft 517 kts 168°
2026-04-30 06:19 30.65238 76.76429 38471 ft 508 kts 177°
2026-04-30 06:20 30.61744 76.76872 37768 ft 502 kts 186°
2026-04-30 06:20 30.58246 76.76914 36937 ft 503 kts 187°
2026-04-30 06:20 30.54768 76.76927 36091 ft 507 kts 186°
2026-04-30 06:20 30.51181 76.76971 35224 ft 511 kts 185°
2026-04-30 06:21 30.47669 76.77047 34444 ft 512 kts 184°
2026-04-30 06:21 30.44113 76.77147 33609 ft 509 kts 184°
2026-04-30 06:21 30.40578 76.77258 32491 ft 505 kts 183°
2026-04-30 06:21 30.37085 76.77368 31444 ft 500 kts 182°
2026-04-30 06:22 30.33622 76.77475 30407 ft 494 kts 182°
2026-04-30 06:22 30.30207 76.77575 29252 ft 489 kts 181°
2026-04-30 06:22 30.26821 76.77676 28075 ft 484 kts 181°
2026-04-30 06:22 30.23537 76.77781 27296 ft 470 kts 181°
2026-04-30 06:23 30.20332 76.77887 26849 ft 451 kts 180°
2026-04-30 06:23 30.17261 76.77990 26439 ft 433 kts 180°
2026-04-30 06:23 30.14297 76.78089 25945 ft 419 kts 180°
2026-04-30 06:23 30.11427 76.78182 25457 ft 406 kts 180°
2026-04-30 06:24 30.08619 76.78271 24996 ft 409 kts 180°
2026-04-30 06:24 30.05720 76.78358 24717 ft 419 kts 180°
2026-04-30 06:24 30.02813 76.78447 24297 ft 418 kts 180°
2026-04-30 06:24 29.99886 76.78536 23466 ft 421 kts 179°
2026-04-30 06:25 29.96982 76.78622 22845 ft 413 kts 179°
2026-04-30 06:25 29.94128 76.78708 22487 ft 409 kts 179°
2026-04-30 06:25 29.91324 76.78795 22015 ft 405 kts 179°
2026-04-30 06:25 29.88540 76.78882 21535 ft 395 kts 180°
2026-04-30 06:26 29.85835 76.78966 21069 ft 382 kts 180°
2026-04-30 06:26 29.83247 76.79047 20632 ft 375 kts 180°
2026-04-30 06:26 29.80549 76.79127 20157 ft 400 kts 180°
2026-04-30 06:26 29.77752 76.79210 19673 ft 407 kts 180°
2026-04-30 06:27 29.74913 76.79402 19149 ft 406 kts 174°
2026-04-30 06:27 29.72160 76.80021 18683 ft 399 kts 166°
2026-04-30 06:27 29.69531 76.80921 18175 ft 389 kts 165°
2026-04-30 06:27 29.67026 76.81810 17710 ft 375 kts 165°
2026-04-30 06:28 29.64562 76.82668 17266 ft 364 kts 166°
2026-04-30 06:28 29.62044 76.83511 16810 ft 390 kts 167°
2026-04-30 06:28 29.59382 76.84378 16318 ft 400 kts 167°
2026-04-30 06:28 29.56701 76.85244 15831 ft 396 kts 167°
2026-04-30 06:29 29.54070 76.86090 15416 ft 385 kts 167°
2026-04-30 06:29 29.51521 76.86909 15169 ft 377 kts 167°
2026-04-30 06:29 29.48964 76.87724 14933 ft 381 kts 168°
2026-04-30 06:29 29.46450 76.88524 14699 ft 379 kts 168°
2026-04-30 06:30 29.43911 76.89334 14460 ft 377 kts 168°
2026-04-30 06:30 29.41380 76.90142 14230 ft 376 kts 168°
2026-04-30 06:30 29.38864 76.90950 13987 ft 374 kts 168°
2026-04-30 06:30 29.36379 76.91750 13760 ft 374 kts 168°
2026-04-30 06:31 29.33880 76.92553 13529 ft 372 kts 168°
2026-04-30 06:31 29.31381 76.93355 13278 ft 371 kts 168°
2026-04-30 06:31 29.28883 76.94156 13012 ft 370 kts 168°
2026-04-30 06:31 29.26439 76.94938 12769 ft 370 kts 168°
2026-04-30 06:32 29.23951 76.95734 12515 ft 369 kts 168°
2026-04-30 06:32 29.21482 76.96522 12262 ft 368 kts 168°
2026-04-30 06:32 29.19009 76.97307 12008 ft 367 kts 168°
2026-04-30 06:32 29.16592 76.98284 11760 ft 370 kts 156°
2026-04-30 06:33 29.14348 76.99683 11520 ft 371 kts 153°
2026-04-30 06:33 29.12117 77.01179 11263 ft 370 kts 153°
2026-04-30 06:33 29.09895 77.02659 11037 ft 369 kts 153°
2026-04-30 06:33 29.07658 77.04103 10796 ft 369 kts 154°
2026-04-30 06:34 29.05407 77.05520 10560 ft 368 kts 155°
2026-04-30 06:34 29.03163 77.06908 10327 ft 366 kts 155°
2026-04-30 06:34 29.00939 77.08279 10132 ft 358 kts 155°
2026-04-30 06:34 28.98816 77.09592 9903 ft 342 kts 155°
2026-04-30 06:35 28.96750 77.10866 9577 ft 330 kts 155°
2026-04-30 06:35 28.94763 77.12092 9233 ft 319 kts 155°
2026-04-30 06:35 28.92843 77.13277 8873 ft 308 kts 155°
2026-04-30 06:35 28.90989 77.14421 8601 ft 297 kts 155°
2026-04-30 06:36 28.89204 77.15530 8319 ft 287 kts 155°
2026-04-30 06:36 28.87479 77.16590 8074 ft 286 kts 156°
2026-04-30 06:36 28.85721 77.17647 7799 ft 283 kts 156°
2026-04-30 06:36 28.83996 77.18704 7553 ft 281 kts 155°
2026-04-30 06:37 28.82286 77.19767 7273 ft 276 kts 155°
2026-04-30 06:37 28.80594 77.20822 7042 ft 281 kts 154°
2026-04-30 06:37 28.78867 77.21898 6779 ft 282 kts 155°
2026-04-30 06:37 28.77156 77.22949 6510 ft 281 kts 155°
2026-04-30 06:38 28.75444 77.24000 6271 ft 278 kts 155°
2026-04-30 06:38 28.73742 77.25050 5999 ft 276 kts 155°
2026-04-30 06:38 28.72059 77.26087 5725 ft 274 kts 155°
2026-04-30 06:38 28.70386 77.27122 5461 ft 271 kts 155°
2026-04-30 06:39 28.68755 77.28132 5191 ft 266 kts 155°
2026-04-30 06:39 28.67143 77.29128 4848 ft 264 kts 155°
2026-04-30 06:39 28.65576 77.30100 4544 ft 252 kts 155°
2026-04-30 06:39 28.64055 77.31040 4183 ft 245 kts 155°
2026-04-30 06:40 28.62576 77.31957 3817 ft 238 kts 154°
2026-04-30 06:40 28.61139 77.32846 3460 ft 230 kts 154°
2026-04-30 06:40 28.59711 77.33535 3173 ft 218 kts 173°
2026-04-30 06:40 28.58261 77.33386 2928 ft 210 kts 202°
2026-04-30 06:41 28.57146 77.32384 2734 ft 206 kts 235°
2026-04-30 06:41 28.56632 77.30861 2558 ft 208 kts 258°
2026-04-30 06:41 28.56520 77.29261 2393 ft 198 kts 267°
2026-04-30 06:41 28.56537 77.27714 2203 ft 196 kts 270°
2026-04-30 06:42 28.56576 77.26125 2019 ft 201 kts 270°
2026-04-30 06:42 28.56614 77.24579 1836 ft 199 kts 271°
2026-04-30 06:42 28.56658 77.23019 1792 ft 188 kts 271°
2026-04-30 06:42 28.56696 77.21624 1802 ft 164 kts 270°
2026-04-30 06:43 28.56731 77.20386 1813 ft 158 kts 270°
2026-04-30 06:43 28.56766 77.19151 1808 ft 157 kts 269°
2026-04-30 06:43 28.56802 77.17897 1792 ft 155 kts 269°
2026-04-30 06:43 28.56835 77.16644 1718 ft 163 kts 270°
2026-04-30 06:44 28.56870 77.15372 1476 ft 155 kts 269°
2026-04-30 06:44 28.56904 77.14184 1283 ft 149 kts 269°
2026-04-30 06:44 28.56937 77.13028 1060 ft 148 kts 271°
2026-04-30 06:44 28.57000 77.11871 849 ft 143 kts 271°
2026-04-30 06:45 28.57003 77.10762 773 ft 134 kts 270°
2026-04-30 06:45 28.57019 77.09905 774 ft 79 kts 271°
2026-04-30 06:45 28.57029 77.09504 774 ft 22 kts 274°
2026-04-30 06:45 28.57032 77.09453 774 ft 13 kts 274°
2026-04-30 06:46 28.56998 77.09289 774 ft 14 kts 246°
2026-04-30 06:46 28.56937 77.09167 773 ft 23 kts 239°
2026-04-30 06:46 28.56871 77.09043 773 ft 9 kts 239°
2026-04-30 06:46 28.56817 77.09004 773 ft 10 kts 167°
2026-04-30 06:47 28.56735 77.09025 773 ft 14 kts 167°
2026-04-30 06:47 28.56631 77.09051 773 ft 17 kts 168°
2026-04-30 06:47 28.56510 77.09078 773 ft 19 kts 169°
2026-04-30 06:47 28.56372 77.09102 773 ft 21 kts 176°
2026-04-30 06:48 28.56224 77.09063 773 ft 23 kts 197°
2026-04-30 06:48 28.56144 77.09037 773 ft 2 kts 204°
2026-04-30 06:48 28.56130 77.09013 773 ft 5 kts 247°
2026-04-30 06:48 28.56139 77.08969 773 ft 8 kts 284°
2026-04-30 06:49 28.56158 77.08899 773 ft 11 kts 298°
2026-04-30 06:49 28.56224 77.08886 773 ft 11 kts 25°
2026-04-30 06:49 28.56247 77.08895 773 ft 0 kts 15°